When you browse on this site, cookies collect data to enhance your experience and personalize the content and advertising you see.
Visit our Privacy Policy to learn more. By continuing to use the site, you agree to this use of cookies and data.
  • In Hungary
  • List of Countries
  • For 7 days
  • Water Temperature
  • Weather Map
  • News
  • Weather Widgets
  • user-avatar
    Login

    Hourly Weather Lustenau

    Today, 6 December, Friday

    Time Temperature Precipitation Wind Pressure Humidity
    00:00 +4°C° 0 mm 1 mps 730 mmHg 59%
    01:00 +4°C° 0 mm 1 mps 730 mmHg 58%
    02:00 +4°C° 0 mm 1 mps 730 mmHg 57%
    03:00 +4°C° 0 mm 1 mps 729 mmHg 57%
    04:00 +4°C° 0 mm 1 mps 729 mmHg 56%
    05:00 +4°C° 0 mm 1 mps 729 mmHg 55%
    06:00 +4°C° 0 mm 1 mps 729 mmHg 54%
    07:00 +4°C° 0 mm 1 mps 729 mmHg 53%
    08:00 +5°C° 0 mm 1 mps 729 mmHg 53%
    09:00 +6°C° 0 mm 1 mps 729 mmHg 52%
    10:00 +7°C° 0 mm 1 mps 728 mmHg 52%
    11:00 +8°C° 0 mm 1 mps 728 mmHg 53%
    12:00 +10°C° 0 mm 1 mps 728 mmHg 54%
    13:00 +11°C° 0 mm 1 mps 728 mmHg 54%
    14:00 +10°C° 0 mm 1 mps 727 mmHg 57%
    15:00 +8°C° 0 mm 1 mps 727 mmHg 60%
    16:00 +7°C° 0 mm 1 mps 726 mmHg 63%
    17:00 +6°C° 0 mm 1 mps 726 mmHg 63%
    18:00 +5°C° 0 mm 2 mps 727 mmHg 63%
    19:00 +4°C° 0 mm 2 mps 727 mmHg 62%
    20:00 +4°C° 0 mm 2 mps 727 mmHg 61%
    21:00 +4°C° 0 mm 2 mps 727 mmHg 60%
    22:00 +4°C° 0 mm 2 mps 727 mmHg 60%
    23:00 +5°C° 0 mm 2 mps 727 mmHg 60%

    Tomorrow, 7 December, Saturday

    Time Temperature Precipitation Wind Pressure Humidity
    00:00 +5°C° 0 mm 2 mps 727 mmHg 61%
    01:00 +5°C° 0 mm 2 mps 727 mmHg 61%
    02:00 +4°C° 0.2 mm 3 mps 726 mmHg 67%
    03:00 +5°C° 0.2 mm 3 mps 726 mmHg 73%
    04:00 +5°C° 0.2 mm 3 mps 726 mmHg 79%
    05:00 +5°C° 0.5 mm 3 mps 726 mmHg 82%
    06:00 +4°C° 0.5 mm 3 mps 727 mmHg 85%
    07:00 +5°C° 0.5 mm 2 mps 727 mmHg 89%
    08:00 +5°C° 0.5 mm 2 mps 727 mmHg 90%
    09:00 +6°C° 0.5 mm 2 mps 727 mmHg 91%
    10:00 +6°C° 0.5 mm 2 mps 727 mmHg 92%
    11:00 +6°C° 0.2 mm 2 mps 727 mmHg 91%
    12:00 +7°C° 0.2 mm 2 mps 727 mmHg 91%
    13:00 +7°C° 0.2 mm 2 mps 727 mmHg 90%
    14:00 +7°C° 0.1 mm 2 mps 727 mmHg 90%
    15:00 +7°C° 0.1 mm 2 mps 727 mmHg 91%
    16:00 +8°C° 0.1 mm 1 mps 727 mmHg 91%
    17:00 +8°C° 0.1 mm 1 mps 727 mmHg 91%
    18:00 +7°C° 0.1 mm 2 mps 728 mmHg 91%
    19:00 +7°C° 0.1 mm 2 mps 728 mmHg 91%
    20:00 +7°C° 0 mm 1 mps 729 mmHg 91%
    21:00 +7°C° 0 mm 1 mps 729 mmHg 91%
    22:00 +7°C° 0 mm 1 mps 729 mmHg 91%
    23:00 +7°C° 0 mm 1 mps 729 mmHg 90%

    Day after tomorrow, 8 December, Sunday

    Time Temperature Precipitation Wind Pressure Humidity
    00:00 +7°C° 0 mm 1 mps 729 mmHg 89%
    01:00 +6°C° 0 mm 1 mps 729 mmHg 88%
    02:00 +6°C° 0 mm 1 mps 728 mmHg 88%
    03:00 +5°C° 0 mm 1 mps 728 mmHg 87%
    04:00 +5°C° 0 mm 1 mps 727 mmHg 87%
    05:00 +4°C° 0 mm 2 mps 727 mmHg 85%
    06:00 +4°C° 0 mm 2 mps 727 mmHg 84%
    07:00 +3°C° 0 mm 2 mps 726 mmHg 82%
    08:00 +4°C° 0 mm 2 mps 726 mmHg 80%
    09:00 +5°C° 0 mm 2 mps 726 mmHg 77%
    10:00 +6°C° 0 mm 2 mps 725 mmHg 74%
    11:00 +7°C° 0 mm 2 mps 725 mmHg 72%
    12:00 +8°C° 0 mm 2 mps 725 mmHg 71%
    13:00 +9°C° 0 mm 2 mps 724 mmHg 69%
    14:00 +9°C° 0 mm 2 mps 724 mmHg 70%
    15:00 +8°C° 0 mm 2 mps 723 mmHg 71%
    16:00 +8°C° 0 mm 2 mps 723 mmHg 71%
    17:00 +8°C° 0.1 mm 2 mps 723 mmHg 72%
    18:00 +8°C° 0.1 mm 2 mps 723 mmHg 73%
    19:00 +8°C° 0.1 mm 3 mps 723 mmHg 74%
    20:00 +7°C° 0 mm 2 mps 722 mmHg 73%
    21:00 +7°C° 0 mm 2 mps 722 mmHg 73%
    22:00 +7°C° 0 mm 2 mps 721 mmHg 72%
    23:00 +7°C° 0.1 mm 2 mps 721 mmHg 75%

    9 December, Monday

    Time Temperature Precipitation Wind Pressure Humidity
    00:00 +7°C° 0.1 mm 3 mps 721 mmHg 77%
    01:00 +7°C° 0.1 mm 3 mps 720 mmHg 80%
    02:00 +7°C° 0.9 mm 3 mps 720 mmHg 84%
    03:00 +5°C° 0.9 mm 4 mps 720 mmHg 88%
    04:00 +5°C° 0.9 mm 4 mps 720 mmHg 92%
    05:00 +4°C° 0.7 mm 4 mps 720 mmHg 91%
    06:00 +4°C° 0.7 mm 4 mps 720 mmHg 90%
    07:00 +4°C° 0.7 mm 4 mps 720 mmHg 89%
    08:00 +4°C° 0 mm 4 mps 719 mmHg 88%
    09:00 +4°C° 0 mm 4 mps 719 mmHg 86%
    10:00 +4°C° 0 mm 4 mps 718 mmHg 85%
    11:00 +5°C° 0.2 mm 4 mps 718 mmHg 85%
    12:00 +5°C° 0.2 mm 4 mps 717 mmHg 84%
    13:00 +5°C° 0.2 mm 4 mps 717 mmHg 84%
    14:00 +5°C° 0.5 mm 4 mps 717 mmHg 88%
    15:00 +4°C° 0.5 mm 4 mps 717 mmHg 92%
    16:00 +3°C° 0.5 mm 3 mps 717 mmHg 96%
    17:00 +3°C° 0.7 mm 4 mps 718 mmHg 96%
    18:00 +3°C° 0.7 mm 4 mps 719 mmHg 96%
    19:00 +3°C° 0.7 mm 4 mps 720 mmHg 96%
    20:00 +3°C° 1.2 mm 4 mps 720 mmHg 96%
    21:00 +3°C° 1.2 mm 4 mps 721 mmHg 97%
    22:00 +2°C° 1.2 mm 5 mps 721 mmHg 97%
    23:00 +2°C° 1.7 mm 5 mps 722 mmHg 97%

    10 December, Tuesday

    Time Temperature Precipitation Wind Pressure Humidity
    00:00 +2°C° 1.7 mm 5 mps 723 mmHg 97%
    01:00 +1°C° 1.7 mm 5 mps 723 mmHg 98%
    02:00 +1°C° 1.3 mm 5 mps 724 mmHg 96%
    03:00 +1°C° 1.3 mm 5 mps 725 mmHg 94%
    04:00 +1°C° 1.3 mm 4 mps 726 mmHg 92%
    05:00 0°C° 0.5 mm 4 mps 727 mmHg 93%
    06:00 0°C° 0.5 mm 4 mps 728 mmHg 94%
    07:00 -1°C° 0.5 mm 4 mps 729 mmHg 95%
    08:00 0°C° 0.5 mm 4 mps 729 mmHg 93%
    09:00 0°C° 0.5 mm 4 mps 730 mmHg 92%
    10:00 0°C° 0.5 mm 4 mps 731 mmHg 90%
    11:00 +1°C° 0.2 mm 4 mps 731 mmHg 87%
    12:00 +2°C° 0.2 mm 3 mps 731 mmHg 84%
    13:00 +2°C° 0.2 mm 3 mps 731 mmHg 81%
    14:00 +3°C° 0 mm 2 mps 731 mmHg 82%
    15:00 +2°C° 0 mm 2 mps 730 mmHg 83%
    16:00 +2°C° 0 mm 1 mps 730 mmHg 84%
    17:00 -1°C° 0 mm 2 mps 730 mmHg 81%
    18:00 -2°C° 0 mm 2 mps 730 mmHg 78%
    19:00 -3°C° 0 mm 2 mps 729 mmHg 75%
    20:00 -3°C° 0 mm 2 mps 729 mmHg 72%
    21:00 -3°C° 0 mm 2 mps 728 mmHg 68%
    22:00 -3°C° 0 mm 2 mps 728 mmHg 65%
    23:00 -2°C° 0 mm 2 mps 727 mmHg 63%

    11 December, Wednesday

    Time Temperature Precipitation Wind Pressure Humidity
    00:00 -1°C° 0 mm 2 mps 727 mmHg 62%
    01:00 +1°C° 0 mm 2 mps 726 mmHg 61%
    02:00 +2°C° 0 mm 2 mps 725 mmHg 60%
    03:00 +2°C° 0 mm 2 mps 725 mmHg 59%
    04:00 +3°C° 0 mm 2 mps 724 mmHg 59%
    05:00 +3°C° 0 mm 2 mps 724 mmHg 60%
    06:00 +4°C° 0 mm 2 mps 723 mmHg 62%
    07:00 +4°C° 0 mm 2 mps 723 mmHg 64%
    08:00 +4°C° 0.3 mm 2 mps 723 mmHg 69%
    09:00 +4°C° 0.3 mm 2 mps 723 mmHg 73%
    10:00 +5°C° 0.3 mm 2 mps 723 mmHg 78%
    11:00 +5°C° 1.2 mm 2 mps 723 mmHg 83%
    12:00 +5°C° 1.2 mm 2 mps 722 mmHg 87%
    13:00 +4°C° 1.2 mm 3 mps 722 mmHg 92%
    14:00 +4°C° 1.1 mm 3 mps 722 mmHg 93%
    15:00 +4°C° 1.1 mm 3 mps 722 mmHg 94%
    16:00 +4°C° 1.1 mm 3 mps 722 mmHg 95%
    17:00 +4°C° 0.6 mm 2 mps 722 mmHg 94%
    18:00 +4°C° 0.6 mm 2 mps 722 mmHg 94%
    19:00 +5°C° 0.6 mm 1 mps 722 mmHg 94%
    20:00 +3°C° 0.1 mm 2 mps 722 mmHg 93%
    21:00 +3°C° 0.1 mm 2 mps 721 mmHg 91%
    22:00 +2°C° 0.1 mm 2 mps 721 mmHg 89%
    23:00 +2°C° 0 mm 2 mps 721 mmHg 87%
    Show more